Location: Breux
(46.3269°N, 3.2993°E)
Time: 19:44:02
(UTC+00:00)

Cosmos 921 Rocket - Pass Details

Date: 09 April 2020
Orbit: 572 x 632 km, 75.8° (Epoch: 02 June)

Event Time Altitude Azimuth Distance (km) Brightness Sun altitude
Rises 18:59:26 0° 348° (NNW) 2,790 6.9 -6.3°
Reaches altitude 10° 19:01:48 10° 358° (N) 1,888 5.8 -6.6°
Maximum altitude 19:05:37 33° 64° (ENE) 975 3.7 -7.3°
Drops below altitude 10° 19:09:26 10° 129° (SE) 1,887 4.9 -7.9°
Enters shadow 19:09:46 - 131° (SE) 2,011 5.1 -7.9°
